LEMUR-2-VU (43558 NORAD) Tracking and Keplerian Element Data

This shows tracking and keplerian element data for the satellite.

Feedback or suggestion? Click here.




ElementValue
Catalog43558
NameLEMUR-2-VU
Epoch Orbit1920
Epoch Day323.17512459
Epoch Year2018
RAAN350.5663
Inclination51.6414
Eccentricity0.0008221
Argument of Perigee39.2198
Mean Anonmoly320.9376
Mean Motion15.283238
Decay Rate2.701E-05
L11 43558U 18046E 18323.17512459 .00002701 00000-0 10916-3 0 9995
L22 43558 51.6414 350.5663 0008221 39.2198 320.9376 15.28323800 19205

Live tracking and technical data element details for LEMUR-2-VU (NORAD 43558). LEMUR-2-VU can be tracked NOW for your location showing map with azimuth and elevation plus other details from your city location.

Track the satellite on the map from your city or location and see movement details for azimuth, elevation, latitude, longitude, range, height, and movement on the map or in text.







IsCatalogInMostPopularTable: catalog: 43558, numindb: 44
Update: records affected: 1



GetName: 43558 LEMUR-2-VU

Hit Count: updated at: Tue, 20 Nov 2018 11:22:44 GMT